Bloomington, IN

6:43 AM EST on December 03, 2016 (GMT -0500)
Monroe County

Weather History for KBMG - May, 2013

Change the Weather History Date:

Monday, May 13, 2013

  Actual Average Record
Temperature  
Mean Temperature 50 °F 62 °F  
Max Temperature 65 °F 73 °F 129 °F (2016)
Min Temperature 35 °F 51 °F 34 °F (2001)
Degree Days  
Heating Degree Days 15 5  
Month to date heating degree days 71 78  
Since 1 July heating degree days 5259 5192  
Moisture  
Dew Point 33 °F    
Average Humidity 58    
Maximum Humidity 92    
Minimum Humidity 24    
Precipitation  
Precipitation 0.00 in 0.17 in 1.36 in (2002)
Month to date precipitation 2.28 2.29  
Year to date precipitation 17.68 16.94  
Sea Level Pressure  
Sea Level Pressure 30.16 in    
Wind  
Wind Speed 4 mph (West)    
Max Wind Speed 16 mph    
Max Gust Speed 22 mph    
Visibility 10 miles    
Events      
T = Trace of Precipitation, MM = Missing Value Source: NWS Daily Summary

Daily Weather History Graph

Daily Weather History Graph

Search for Another Location

Airport or City:

Trip Planner

Search our weather history database for the weather conditions in past years. The results will help you decide how hot, cold, wet, or windy it might be!

Date:

Astronomy

May. 13, 2013 Rise Set
Actual Time 6:34 AM EDT 8:51 PM EDT
Civil Twilight 6:04 AM EDT 9:21 PM EDT
Nautical Twilight 5:28 AM EDT 9:58 PM EDT
Astronomical Twilight 4:47 AM EDT 10:38 PM EDT
Moon 9:20 AM EDT (5/13) No Moon Set
Length of Visible Light 15h 16m
Length of Day
14h 16m
Waxing Crescent, 12% of the Moon is Illuminated
May 13
Waxing Crescent
May 18
First Quarter
May 25
Full
May 31
Last Quarter
Jun 8
New

Hourly Weather History & Observations

Time (EDT) Temp. Windchill Dew Point Humidity Pressure Visibility Wind Dir Wind Speed Gust Speed Precip Events Conditions
12:53 AM 39.0 °F - 35.1 °F 86% 30.15 in 10.0 mi Calm Calm - N/A   Clear
1:53 AM 37.9 °F - 34.0 °F 86% 30.14 in 10.0 mi Calm Calm - N/A   Clear
2:53 AM 37.9 °F - 34.0 °F 86% 30.13 in 10.0 mi Calm Calm - N/A   Clear
3:53 AM 37.0 °F - 33.1 °F 86% 30.14 in 10.0 mi Calm Calm - N/A   Clear
4:53 AM 36.0 °F - 34.0 °F 93% 30.14 in 10.0 mi Calm Calm - N/A   Clear
5:53 AM 35.1 °F - 32.0 °F 89% 30.14 in 10.0 mi Calm Calm - N/A   Clear
6:53 AM 36.0 °F - 34.0 °F 93% 30.14 in 10.0 mi Calm Calm - N/A   Clear
7:53 AM 42.1 °F 40.2 °F 36.0 °F 79% 30.16 in 10.0 mi West 3.5 mph - N/A   Clear
8:53 AM 46.9 °F - 35.1 °F 63% 30.19 in 10.0 mi West 5.8 mph - N/A   Clear
9:53 AM 52.0 °F - 33.1 °F 49% 30.20 in 10.0 mi West 5.8 mph - N/A   Clear
10:53 AM 57.0 °F - 28.9 °F 34% 30.21 in 10.0 mi NW 8.1 mph - N/A   Clear
11:53 AM 59.0 °F - 30.9 °F 35% 30.21 in 10.0 mi Variable 6.9 mph 16.1 mph N/A   Clear
12:53 PM 60.1 °F - 28.0 °F 30% 30.20 in 10.0 mi NNW 10.4 mph 17.3 mph N/A   Clear
1:53 PM 61.0 °F - 28.9 °F 30% 30.18 in 10.0 mi WNW 11.5 mph 19.6 mph N/A   Clear
2:53 PM 63.0 °F - 28.9 °F 28% 30.17 in 10.0 mi West 9.2 mph - N/A   Clear
4:53 PM 64.0 °F - 27.0 °F 25% 30.14 in 10.0 mi Variable 6.9 mph 17.3 mph N/A   Clear
5:53 PM 64.0 °F - 28.9 °F 27% 30.13 in 10.0 mi West 12.7 mph 18.4 mph N/A   Clear
6:53 PM 63.0 °F - 28.9 °F 28% 30.12 in 10.0 mi West 8.1 mph - N/A   Clear
8:53 PM 54.0 °F - 39.9 °F 59% 30.13 in 10.0 mi SW 3.5 mph - N/A   Clear
9:53 PM 52.0 °F - 35.1 °F 53% 30.14 in 10.0 mi Calm Calm - N/A   Clear
10:53 PM 48.9 °F - 39.0 °F 69% 30.14 in 10.0 mi Calm Calm - N/A   Clear
11:53 PM 48.9 °F - 42.1 °F 77% 30.13 in 10.0 mi Calm Calm - N/A   Clear